COSMOS 1275 DEB, 12673

Orbit data source: Space-Track

COSMOS 1275 DEB, 12673 is space debris in LEO originally from a launch on Thu, 04 Jun 1981 UTC launched from the Plesetsk Missile And Space Complex (PKMTR). Debris objects in space refer to the collection of defunct objects orbiting the Earth. Examples of debris include non-operational satellites, rocket bodies, and fragments generated from explosions, collisions, or faulty payload assembly.

Loading next visibility...
COSMOS 1275 DEB details
Identifier
12673, 1981-053AD
Orbit
LEO
Last TLE update22 hours ago
Origin
Flag of CISVMF (CIS)
ManufacturerUnknown
MissionSpacecraft
Bus & MotorUnknown
MassUnknown
Launch date (UTC)
1981-06-04 (44 years ago)
Launch vehicleUnknown
Launch site
Plesetsk Missile And Space Complex (PKMTR)
Object type
Payload
Rocket body
Debris
Shape & HBRUnknown
Radar Cross SectionMedium (>0.1 m² and <1 m²)

Expand to show TLE details & history

TLE from 22 hours ago
0 COSMOS 1275 DEB
1 12673U 81053AD  25024.86698995  .00005396  00000-0  30662-2 0  9991
2 12673  82.8517 186.9432 0040773 269.4554 212.5088 14.09311632203215
Epoch: 2025-01-24T20:48Z
Definitive object data (Epoch: 2025-01-24T20:48:27.931Z)
Latitude57.66926°
Longitude-80.96512°
Altitude896.37 km
Speed7.397 km/s
True Right ascension23h 42m 18s
True Declination57° 30' 60"
Sunlit
Object was in daylight at TLE epoch
Visualization TLE readout
Latitude35.80521°
Longitude114.8462°
Altitude885.147 km
Speed7.403 km/s
Apparent Right ascension10h 35m 19s
Apparent Declination1° 02' 17"
Sunlit
Object is in full shadow
Visualization observer readout
Local Sidereal Time19:53:50
Azimuth307.818° NW
Elevation-34.933°
Doppler factor1
Orbital elements
Apogee altitude888.34 km
Perigee altitude829.326 km
Semi-major axis7,236.97 km
Eccentricity0.0040773
Inclination82.8517°
RAAN186.9432°
Arg. of periapsis269.4554°
True anomaly212.25878°
Mean anomaly212.5088°
Eccentric anomaly212.38368°
Mean motion3.5254 °/min
BSTAR0.0030662
Orbital period102.12 mins
Loading maneuver chart data...
Loading historical data...
Loading historical data...
Loading historical data...
Loading historical data...
Loading historical data...
Loading historical data...
Loading historical data...

COSMOS 1275 DEB Visibility forecast

Observer location: undefined°, undefined

Span
Click to sort rows by Start time (UTC) header in descending order
Start Az.
Max El. time (UTC)
Max El. Az.
Max El.
End time (UTC)
End Az.
10 mins2025-01-25 22:22:02.509Z358.038° N2025-01-25 22:27:02.509Z78.611° E43.569°2025-01-25 22:32:02.509Z165.44° S
4 mins2025-01-26 00:08:02.509Z292.814° NW2025-01-26 00:09:02.509Z281.471° WNW13.73°2025-01-26 00:12:02.509Z249.225° W
4 mins2025-01-26 09:53:02.509Z98.191° ESE2025-01-26 09:54:02.509Z86.766° E14.248°2025-01-26 09:57:02.509Z53.627° ENE
10 mins2025-01-26 11:32:02.509Z196.521° SSW2025-01-26 11:37:02.509Z302.577° NW42.792°2025-01-26 11:42:02.509Z1.716° NNE
|